Torna al catalogo

COSMOS 2546

AttivoNavigazioneHEO
NORAD 45608·PAYLOAD·🇷🇺 Russia

Lanciato May 22, 2020 da Plesetsk Cosmodrome

Loading…

Prossimi Passaggi (prossime 24 ore)

TLE

In scadenzaSource: Space-Track

Epoca: Aug 31, 2026, 07:05 UTC

1 45608U 20031A   26243.29559994 -.00000360  00000-0  00000-0 0  9998
2 45608  63.1638  56.8572 7115328 266.6524  17.3178  2.00576418 45978

Traccia COSMOS 2546 in tempo reale con AllMySat

Download on the App Store